Wind_Speed
16 14 13 12 11 10 9 8 7 6 5 4 4 4 3 3 2 2 2 2 2 2 3 3 4 5 6 7 8 9 9 10 11 11 12 13 13 14 15 16 16 17 17
16 15 14 13 12 11 10 8 7 6 6 5 5 4 4 3 3 2 2 2 2 2 3 3 4 5 6 7 8 9 9 10 10 11 12 13 13 14 15 16 17 17 18
18 16 15 14 13 11 10 9 8 7 6 6 6 5 4 4 3 2 2 2 2 2 3 3 4 5 6 6 7 8 9 10 10 11 12 13 14 15 16 17 17 18 19
19 17 16 15 14 12 11 10 9 8 7 7 6 6 5 4 3 3 2 2 2 2 3 3 4 5 6 6 7 8 9 10 11 12 13 14 15 16 17 18 19 19 20
20 19 17 16 15 14 12 11 10 9 8 8 7 7 6 5 4 3 3 2 2 3 3 4 4 5 5 6 7 8 9 10 11 13 14 15 16 17 18 19 20 20 21
21 20 18 17 16 15 13 12 11 10 10 9 9 8 7 6 5 4 4 3 3 3 4 4 5 5 6 7 8 9 10 11 12 14 15 16 17 19 19 20 21 22 22
22 21 19 18 17 16 15 14 13 12 11 11 10 9 8 7 7 6 5 4 4 4 4 5 5 6 6 7 8 9 10 12 13 15 16 17 18 19 21 21 22 23 24
23 22 20 19 19 17 16 15 14 13 12 12 11 10 10 9 8 7 6 6 5 5 5 6 6 7 7 8 9 10 11 13 14 16 17 18 19 21 22 22 23 24 25
25 23 21 20 20 19 18 17 16 15 14 13 12 11 11 10 9 9 8 7 7 7 7 7 8 8 9 10 11 11 13 14 16 17 18 20 21 22 23 24 25 26 27
27 25 23 22 21 21 20 19 18 17 16 15 14 13 12 12 11 10 10 9 9 9 9 9 9 10 10 11 12 13 14 16 17 18 20 21 23 24 25 26 27 28 29
29 27 25 23 23 22 21 20 20 19 18 17 16 15 14 13 13 12 11 11 11 11 11 11 11 12 12 13 14 15 16 17 19 20 21 23 24 26 27 28 29 30 31
31 29 27 25 24 24 23 22 21 21 20 19 18 17 16 15 14 14 14 13 13 13 13 13 14 14 15 16 17 17 18 19 20 22 23 25 26 27 29 30 31 32 32
33 31 29 27 26 25 25 24 23 23 22 21 20 19 18 17 17 16 16 16 16 16 16 16 16 17 17 18 19 20 21 22 23 24 25 27 28 29 31 32 33 33 34
35 33 31 30 28 27 26 26 26 25 25 23 22 21 20 20 19 18 18 18 18 18 19 19 19 20 20 21 22 22 23 24 25 26 28 29 31 32 33 33 34 35 35
36 35 33 32 30 29 28 28 28 27 27 26 25 24 23 23 22 21 21 21 21 21 21 22 22 22 23 23 24 25 26 27 28 28 30 31 33 34 35 35 36 36 36
39 37 36 34 33 32 31 30 30 30 29 28 28 27 27 26 25 24 24 24 23 23 24 24 25 25 25 26 27 27 28 29 30 31 32 33 34 36 36 37 37 38 38
41 39 38 37 36 35 34 33 32 32 32 31 31 30 30 29 28 27 27 26 26 26 26 27 27 28 28 29 29 29 30 31 32 33 34 35 36 37 38 38 39 39 39
43 42 41 39 38 37 36 35 35 35 35 34 33 33 32 32 31 30 30 30 30 29 29 30 30 30 30 31 31 32 33 33 34 36 37 38 39 39 39 40 40 41 40
45 44 42 42 41 40 39 38 38 38 37 37 36 36 36 35 34 34 33 33 33 33 33 32 32 33 33 33 34 34 35 35 37 38 39 40 41 41 41 42 42 41 41
46 46 45 44 43 42 42 41 40 40 39 39 39 39 39 38 38 38 37 37 36 36 36 36 36 36 36 36 37 37 37 38 39 40 41 42 43 43 43 43 42 42 41
48 47 47 46 45 44 44 43 42 41 41 41 42 42 41 41 41 40 40 40 39 39 39 40 39 39 39 39 39 40 40 41 41 42 43 44 45 44 44 43 43 42 41
50 49 48 47 47 46 46 45 44 43 43 43 43 44 44 44 44 44 43 42 42 42 43 43 42 41 41 42 42 43 42 42 42 43 44 44 45 45 45 45 44 43 41
50 50 50 49 48 48 47 47 47 46 46 46 46 45 45 46 46 47 47 46 45 45 45 45 45 44 44 44 45 46 46 45 46 45 44 44 44 44 45 45 44 43 42
51 50 50 51 50 50 50 50 49 49 48 48 48 48 48 48 48 48 49 49 48 48 48 48 48 47 47 47 47 47 48 49 48 47 46 45 45 45 45 44 43 43 43
50 50 50 51 51 51 51 51 51 51 51 50 49 50 50 49 50 50 51 51 51 51 51 51 51 50 49 49 48 48 49 48 48 48 47 46 46 45 44 43 43 43 42
50 50 51 51 51 51 51 51 51 52 51 51 52 52 52 51 51 51 51 52 53 53 53 53 52 51 50 49 50 49 49 48 48 47 47 46 46 45 44 43 43 42 41
Wind_Direction
230 233 237 239 241 243 245 245 243 240 234 229 224 220 220 226 233 248 267 293 319 337 349 354 356 358 360 360 360 1 3 3 3 2 3 3 2 360 359 356 355 353 351
229 232 235 236 238 239 240 240 239 237 231 225 225 225 223 230 238 249 267 292 320 331 346 356 357 360 359 359 360 1 2 2 1 0 360 359 357 355 354 353 352 351 348
230 231 234 235 236 236 236 236 236 233 230 229 229 227 228 231 236 248 269 290 312 331 345 351 355 357 356 357 358 359 1 360 358 357 356 355 353 351 350 349 348 347 344
230 232 234 235 236 235 234 235 233 231 230 230 229 227 229 232 237 247 264 287 309 327 336 340 346 351 354 355 355 357 358 357 356 355 353 351 349 348 346 346 345 343 342
230 232 234 235 236 235 235 234 233 232 230 228 228 229 231 236 243 251 265 281 300 314 323 331 339 346 352 353 352 353 354 354 352 351 349 348 346 345 344 342 341 340 339
230 233 235 237 237 236 235 235 234 233 231 230 231 233 235 239 243 250 261 275 291 303 313 322 330 337 344 347 348 349 350 350 349 347 346 345 343 342 341 340 339 338 336
230 233 235 236 237 236 236 236 236 233 232 232 233 235 238 243 247 253 262 272 285 295 306 316 325 330 336 339 341 343 345 345 344 343 342 341 340 339 338 338 337 336 334
230 232 235 236 237 237 237 237 237 234 233 234 236 237 239 244 251 257 263 270 280 291 301 310 317 322 326 330 333 337 339 339 339 339 338 338 337 336 336 335 335 333 332
231 232 234 236 238 238 238 238 237 235 235 237 239 240 242 246 252 259 264 270 277 287 295 302 308 313 318 323 327 330 332 333 334 335 334 334 334 333 333 333 332 331 329
232 233 234 236 238 239 239 238 238 237 237 239 240 242 244 248 253 260 266 270 276 284 292 297 302 307 312 316 320 323 325 328 329 330 330 330 330 330 330 329 329 328 327
233 235 236 237 239 240 240 240 240 240 239 240 242 244 247 251 255 260 266 271 276 283 289 294 298 303 307 311 314 317 319 321 323 325 325 326 327 327 326 326 326 325 325
235 236 238 239 240 241 242 242 243 242 241 242 244 247 250 253 257 262 267 272 277 282 287 291 296 299 303 306 309 312 315 316 318 320 321 322 323 324 324 323 323 323 323
234 238 240 240 242 243 244 245 245 244 244 244 246 249 252 255 259 263 267 272 276 280 284 289 293 296 299 302 305 307 310 312 314 315 317 319 320 320 320 321 321 321 320
234 238 242 243 244 244 245 246 247 247 246 246 248 250 253 256 259 263 267 271 275 279 283 286 290 293 296 299 301 304 306 308 310 312 313 315 317 317 318 318 318 319 318
234 238 241 244 246 247 248 249 249 250 249 249 251 252 254 256 259 263 266 270 274 278 281 285 288 290 293 296 299 301 303 305 306 308 310 312 313 314 315 315 316 316 316
235 238 242 245 247 249 250 251 251 252 253 253 253 255 256 258 261 263 266 269 273 277 280 283 286 288 291 294 296 298 300 302 304 305 306 309 311 312 312 313 313 314 314
237 239 242 245 247 249 251 251 252 253 254 254 256 258 259 261 263 265 267 270 273 277 279 282 284 287 289 292 294 296 298 300 301 303 305 306 308 309 310 310 311 312 312
237 239 242 244 247 249 251 253 254 255 255 256 257 259 262 264 266 267 269 272 275 278 280 282 284 286 288 291 293 294 296 298 300 301 303 304 306 307 308 308 309 309 310
237 239 242 244 247 249 251 253 255 256 257 258 259 261 263 265 266 268 271 273 276 279 280 282 284 286 288 290 292 294 295 296 298 299 301 303 304 305 306 306 307 307 307
238 240 242 244 247 249 251 254 256 257 259 260 262 263 265 267 268 270 272 274 277 279 280 281 284 286 287 289 291 293 294 296 297 298 300 301 303 304 304 305 306 306 306
239 241 243 244 246 249 251 253 255 258 259 260 262 263 265 267 268 270 272 274 276 278 280 281 283 285 286 288 290 291 293 295 296 297 299 300 301 302 303 304 304 304 304
239 241 243 245 247 249 250 252 255 257 259 261 263 265 266 268 269 270 272 274 276 278 280 281 282 284 286 288 289 291 291 292 293 295 297 298 299 300 301 302 303 303 302
241 242 244 246 247 249 251 252 254 256 258 260 262 265 267 269 270 270 272 273 276 278 279 280 281 283 285 287 289 290 291 291 292 294 295 296 297 298 300 300 301 301 301
243 244 245 246 247 249 251 253 254 256 258 260 262 265 266 267 270 272 273 274 276 276 278 279 281 283 284 286 287 288 290 291 292 293 294 296 296 297 298 298 299 299 300
245 246 246 247 248 250 252 253 255 257 259 261 263 264 265 267 269 272 273 274 275 276 278 279 280 282 283 285 286 287 289 290 291 292 293 295 296 296 297 297 298 298 298
246 247 248 249 250 251 253 254 257 258 260 261 263 265 266 267 269 272 273 274 275 276 277 277 278 280 282 283 285 286 288 289 290 291 292 293 294 295 295 296 296 297 297
Height
5883 5885 5887 5888 5889 5891 5892 5893 5894 5894 5895 5895 5896 5897 5897 5897 5898 5898 5897 5897 5897 5897 5896 5896 5895 5895 5894 5894 5893 5892 5892 5891 5890 5889 5888 5887 5886 5885 5884 5883 5882 5880 5879
5882 5883 5885 5887 5888 5890 5891 5892 5893 5893 5894 5895 5895 5896 5896 5897 5897 5897 5897 5897 5896 5896 5896 5895 5895 5895 5894 5893 5893 5892 5891 5890 5890 5889 5888 5887 5886 5885 5883 5882 5881 5879 5877
5880 5882 5884 5885 5887 5888 5889 5891 5892 5892 5893 5894 5895 5895 5896 5896 5896 5896 5896 5896 5896 5896 5895 5895 5895 5894 5893 5893 5892 5892 5891 5890 5889 5888 5887 5886 5885 5884 5882 5881 5879 5878 5876
5877 5880 5882 5883 5885 5887 5888 5889 5890 5891 5892 5893 5894 5894 5895 5895 5895 5895 5895 5895 5895 5895 5895 5895 5894 5893 5893 5892 5892 5891 5890 5889 5888 5888 5886 5885 5884 5883 5881 5879 5878 5876 5874
5875 5877 5880 5881 5883 5885 5886 5888 5889 5890 5891 5892 5892 5893 5894 5894 5894 5895 5895 5895 5895 5894 5894 5894 5893 5893 5892 5892 5891 5890 5889 5888 5887 5887 5885 5884 5883 5881 5880 5878 5876 5874 5873
5872 5875 5877 5879 5881 5883 5885 5886 5887 5888 5889 5890 5891 5892 5893 5893 5893 5894 5894 5894 5894 5894 5893 5893 5892 5892 5891 5891 5890 5889 5888 5887 5886 5885 5884 5883 5881 5880 5878 5876 5874 5873 5871
5870 5872 5874 5877 5879 5881 5882 5884 5885 5887 5888 5889 5890 5890 5891 5892 5892 5892 5892 5892 5893 5892 5892 5892 5891 5891 5890 5889 5889 5888 5887 5886 5885 5884 5882 5881 5880 5878 5876 5874 5872 5870 5868
5867 5869 5872 5874 5876 5878 5880 5882 5883 5885 5886 5887 5888 5889 5889 5890 5890 5891 5891 5891 5891 5891 5891 5890 5890 5889 5889 5888 5887 5886 5885 5884 5883 5882 5881 5879 5877 5876 5874 5872 5870 5868 5866
5863 5866 5869 5871 5873 5876 5877 5879 5881 5882 5883 5885 5886 5887 5887 5888 5889 5889 5889 5889 5889 5889 5889 5888 5888 5888 5887 5886 5885 5884 5883 5882 5881 5880 5878 5877 5875 5873 5871 5869 5867 5865 5862
5860 5863 5866 5868 5870 5873 5874 5876 5878 5880 5881 5882 5883 5884 5885 5886 5886 5887 5887 5887 5887 5887 5887 5886 5886 5886 5885 5884 5883 5882 5881 5880 5879 5877 5876 5874 5872 5870 5868 5866 5864 5861 5859
5856 5859 5862 5865 5867 5869 5871 5873 5875 5877 5878 5880 5881 5882 5883 5883 5884 5884 5885 5885 5885 5885 5884 5884 5884 5883 5882 5882 5881 5880 5878 5877 5876 5874 5873 5871 5869 5867 5865 5862 5860 5858 5855
5852 5855 5858 5861 5864 5866 5868 5870 5872 5873 5875 5876 5878 5879 5880 5881 5881 5882 5882 5882 5882 5882 5882 5881 5881 5880 5880 5879 5878 5877 5876 5874 5873 5871 5869 5867 5865 5863 5861 5859 5856 5853 5851
5847 5851 5854 5857 5860 5862 5864 5866 5868 5870 5872 5873 5874 5875 5876 5877 5878 5879 5879 5879 5879 5879 5879 5878 5878 5877 5877 5876 5875 5873 5872 5871 5869 5867 5865 5863 5861 5859 5857 5854 5852 5849 5846
5843 5846 5849 5852 5855 5858 5860 5862 5864 5866 5868 5869 5870 5871 5873 5874 5874 5875 5875 5876 5876 5876 5875 5875 5874 5874 5873 5872 5871 5870 5868 5867 5865 5863 5861 5859 5857 5854 5852 5849 5847 5844 5841
5837 5841 5845 5847 5850 5853 5856 5858 5860 5861 5863 5865 5866 5867 5868 5869 5870 5871 5871 5872 5872 5872 5871 5871 5870 5870 5869 5868 5867 5865 5864 5862 5861 5859 5857 5854 5852 5849 5847 5844 5841 5838 5835
5832 5836 5839 5842 5845 5848 5850 5853 5854 5856 5858 5860 5861 5862 5864 5865 5866 5866 5867 5867 5867 5867 5867 5866 5866 5865 5864 5863 5862 5860 5859 5857 5855 5853 5851 5849 5847 5844 5841 5838 5835 5832 5829
5826 5830 5834 5837 5840 5842 5845 5847 5849 5851 5853 5854 5856 5857 5858 5859 5860 5861 5861 5862 5862 5862 5861 5861 5860 5860 5859 5858 5857 5855 5854 5852 5850 5847 5845 5843 5841 5838 5835 5832 5829 5826 5822
5820 5824 5827 5831 5834 5836 5839 5841 5843 5845 5846 5848 5850 5851 5852 5854 5854 5855 5855 5856 5856 5856 5856 5855 5854 5854 5853 5852 5851 5849 5848 5846 5843 5841 5839 5836 5834 5831 5828 5825 5822 5819 5815
5814 5817 5821 5824 5827 5830 5832 5834 5836 5838 5840 5842 5843 5845 5846 5847 5848 5848 5849 5849 5849 5849 5849 5849 5848 5847 5846 5845 5844 5843 5841 5839 5837 5834 5832 5829 5826 5824 5821 5818 5815 5811 5808
5806 5810 5814 5817 5820 5823 5825 5828 5830 5832 5834 5835 5837 5838 5839 5840 5841 5841 5842 5842 5842 5842 5842 5841 5841 5840 5839 5838 5837 5836 5834 5832 5829 5827 5824 5821 5819 5816 5813 5810 5807 5804 5800
5798 5802 5806 5810 5813 5816 5818 5820 5823 5825 5826 5828 5829 5830 5831 5832 5833 5834 5834 5834 5835 5834 5834 5834 5833 5832 5831 5830 5829 5828 5826 5824 5822 5819 5816 5813 5810 5807 5804 5801 5798 5795 5792
5790 5794 5798 5801 5805 5807 5810 5813 5815 5817 5818 5820 5821 5822 5823 5824 5825 5825 5826 5826 5826 5826 5826 5825 5824 5824 5823 5821 5820 5819 5818 5817 5814 5811 5808 5805 5802 5798 5795 5793 5790 5786 5783
5781 5786 5789 5793 5796 5799 5802 5804 5806 5808 5809 5811 5813 5813 5814 5815 5815 5816 5817 5817 5817 5817 5816 5816 5815 5814 5814 5812 5810 5809 5807 5806 5805 5803 5800 5797 5793 5790 5787 5784 5781 5777 5774
5773 5777 5780 5784 5787 5790 5792 5795 5797 5799 5801 5802 5803 5805 5805 5806 5807 5807 5807 5807 5807 5807 5807 5806 5806 5805 5804 5803 5801 5799 5797 5795 5793 5792 5790 5787 5784 5781 5778 5774 5771 5768 5765
5763 5767 5771 5774 5777 5780 5783 5785 5787 5789 5791 5792 5794 5795 5796 5796 5797 5797 5797 5797 5797 5797 5797 5796 5795 5794 5793 5792 5791 5789 5787 5785 5783 5781 5780 5777 5774 5771 5768 5765 5762 5759 5756
5754 5758 5761 5764 5768 5770 5772 5775 5777 5779 5780 5782 5783 5784 5785 5786 5786 5787 5787 5786 5786 5786 5786 5785 5784 5784 5783 5782 5780 5779 5777 5775 5773 5770 5769 5767 5764 5761 5758 5755 5752 5749 5746